Regional Weather Roundup
Issued by NWS

Home | Current Version | Previous Version | Graphics & Text | Print | Product List | Glossary On
Versions: 1 2 3 4 5 6 7 8 9 10 11 12 13 14 15 16 17 18 19 20 21 22 23 24 25 26 27 28 29 30 31 32 33 34 35 36 37 38 39 40 41 42 43 44 45 46 47 48 49 50
000
ASUS45 KBOI 201710
RWRID
WEATHER ROUNDUP FOR IDAHO
NATIONAL WEATHER SERVICE BOISE ID
1100 AM MDT MON OCT 20 2014

NOTE: "FAIR" INDICATES FEW OR NO CLOUDS BELOW 12000 FEET
WITH NO SIGNIFICANT WEATHER AND/OR OBSTRUCTIONS TO VISIBILITY

IDZ012-014-201800-
SOUTHWEST IDAHO


CITY           SKY/WX    TMP DP  RH WIND       PRES   REMARKS
BOISE          SUNNY     61  32  33 SE3       29.88F
CALDWELL       SUNNY     59  34  38 SE8       29.90F
MOUNTAIN HOME  SUNNY     65  33  30 SE20G25   29.89F
$$

IDZ016-017-201800-
SOUTHCENTRAL IDAHO


CITY           SKY/WX    TMP DP  RH WIND       PRES   REMARKS
BURLEY         MOSUNNY   58  37  45 E7        29.98S
JEROME         LGT RAIN  65  32  29 NE16      29.96F
TWIN FALLS     SUNNY     63  40  42 NE5       29.95F
$$

IDZ019>023-201800-
SOUTHEAST IDAHO


CITY           SKY/WX    TMP DP  RH WIND       PRES   REMARKS
IDAHO FALLS    MOSUNNY   55  36  48 N5        30.06F
POCATELLO      MOSUNNY   57  37  47 NE5       30.04S
REXBURG        SUNNY     52  36  54 NE3       30.07F
$$

IDZ006-010-011-018-031-032-201800-
CENTRAL IDAHO MOUNTAINS


CITY           SKY/WX    TMP DP  RH WIND       PRES   REMARKS
MCCALL         SUNNY     51  35  54 CALM      29.93F
HAILEY         PTSUNNY   55  32  41 NW9       30.07S
STANLEY          N/A     41  28  60 CALM      30.06F
SALMON         NOT AVBL
CHALLIS        SUNNY     50  32  50 NE3       30.03F
$$

IDZ002-004-006-007-026-201800-
NORTHERN IDAHO


CITY           SKY/WX    TMP DP  RH WIND       PRES   REMARKS
LEWISTON       SUNNY     56  44  64 E5        29.79R
LOWELL           N/A     48  42  80 N6        29.87F
COEUR D`ALENE  SUNNY     54  48  82 NE9       29.79S
MULLAN PASS    SUNNY     55  33  43 VRB6      29.91S
$$



USA.gov is the U.S. government's official web portal to all federal, state and local government web resources and services.